Weather in Lazartsevo

Russia / Yaroslavl Oblast     57°05′19″N   39°35′11″E
temp.,
°C
wind,
m/s
gust,
m/s
humid.,
%
clouds,
%
prec.,
mm/h
press.,
hPa
HPBL,
m
11 may, tue
tue1100:00+5ne33755 0.0 102823
03:00+4ne33795 0.0 102932
06:00+6ne36837 0.0 1029154
09:00+12ne57635 0.0 1029559
12:00+16ene56481 0.0 1029888
15:00+18ene56450 0.0 1027909
18:00+17ene36630 0.0 1027242
21:00+11ene45760 0.0 102760
12 may, wed
wed1200:00+10ese34840 0.0 102857
03:00+10e22912 0.0 102813
06:00+11ene239298 0.0 102897
09:00+17ene46765 0.0 1027456
12:00+22ene68598 0.0 10251163
15:00+22e6116270 1.2 10232189
18:00+16ene5118698 2.8 1022257
21:00+14ese5128453 2.9 1022298
13 may, thu
thu1300:00+13se5119499 0.0 1023557
03:00+13ese5994100 0.0 1023400
06:00+13ese489524 0.0 1022384
09:00+17se57749 0.1 1022926
12:00+18e797331 0.1 10201045
15:00+21ese8126476 0.5 10161777
18:00+15se71292100 3.8 1016797
21:00+13s349598 4.3 1016117
14 may, fri
fri1400:00+11sse34957 0.0 101772
03:00+10s389771 0.0 1018185
06:00+11s36955 0.0 1019188
09:00+15s4669100 0.0 1019609
12:00+18s4765100 0.0 10181088
15:00+20s466550 0.6 10171347
18:00+17se3483100 1.4 101657
21:00+15se3396100 5.8 101569
15 may, sat
sat1500:00+14se4896100 18.6 1014172
03:00+14sse499775 19.4 1012204
06:00+16sse51393100 0.2 1012350
09:00+19sse51086100 0.9 1011482
12:00+23s586484 0.4 10111034
15:00+23s686475 0.6 10091435
18:00+16s4790100 1.0 1009266
21:00+13s512932 1.0 1010369